This demonstration page uses our WeatherBlox Daily Observations layout. Learn more.

Left ArrowRight Arrow

39.01783, -85.05884

Hourly Observations for February 22, 2016

Temp ( °F °C ) Dew Point ( °F °C ) Humidity (%) Winds ( mph kmh ) Pressure ( in mb ) Visibility ( mi km ) Precip ( " mm )
12:52 am 00:52 Mostly Clear 40 4.4 33 0.6 77 77 NNE 10 17 30.08 1019 10 16 N/A
1:52 am 01:52 Partly Cloudy 39 3.9 33 0.6 79 79 NE 10 17 30.09 1019 10 16 N/A
2:52 am 02:52 Partly Cloudy 38 3.3 32 undefined 79 79 NE 10 17 30.08 1019 10 16 N/A
3:52 am 03:52 Partly Cloudy 36 2.2 31 -0.6 82 82 NNE 7 11 30.08 1019 10 16 N/A
4:52 am 04:52 Partly Cloudy 34 1.1 30 -1.1 85 85 N 8 13 30.10 1019 10 16 N/A
5:52 am 05:52 Mostly Cloudy 35 1.7 30 -1.1 82 82 NNE 10 17 30.11 1020 10 16 N/A
6:52 am 06:52 Mostly Cloudy 33 0.6 29 -1.7 85 85 N 7 11 30.13 1020 10 16 N/A
8:52 am 08:52 Mostly Cloudy 36 2.2 30 -1.1 79 79 ENE 9 15 30.14 1021 10 16 N/A
9:52 am 09:52 Mostly Cloudy 40 4.4 31 -0.6 70 70 NE 8 13 30.12 1020 10 16 N/A
10:52 am 10:52 Mostly Cloudy 42 5.6 31 -0.6 65 65 NE 10 17 30.12 1020 10 16 N/A
11:52 am 11:52 Mostly Cloudy 45 7.2 31 -0.6 58 58 NNE 9 15 30.12 1020 10 16 N/A
12:52 pm 12:52 Mostly Cloudy 47 8.3 31 -0.6 54 54 E 8 13 30.09 1019 10 16 N/A
1:52 pm 13:52 Mostly Cloudy 47 8.3 31 -0.6 54 54 E 8 13 30.07 1018 10 16 N/A
2:52 pm 14:52 Mostly Cloudy 48 8.9 31 -0.6 52 52 N N/A 30.06 1018 10 16 N/A
3:52 pm 15:52 Mostly Cloudy 50 10 31 -0.6 48 48 NE 5 7 30.05 1018 10 16 N/A
4:52 pm 16:52 Mostly Cloudy 49 9.4 32 undefined 52 52 NE 8 13 30.04 1017 10 16 N/A
5:52 pm 17:52 Cloudy 48 8.9 31 -0.6 52 52 NE 10 17 30.03 1017 10 16 N/A
6:52 pm 18:52 Cloudy 46 7.8 31 -0.6 56 56 ENE 9 15 30.04 1017 10 16 N/A
7:52 pm 19:52 Cloudy 45 7.2 32 undefined 61 61 E 7 11 30.05 1018 10 16 N/A
8:52 pm 20:52 Mostly Cloudy 44 6.7 32 undefined 63 63 ENE 8 13 30.05 1018 10 16 N/A
9:52 pm 21:52 Mostly Cloudy 43 6.1 32 undefined 65 65 NE 10 17 30.04 1017 10 16 N/A
10:52 pm 22:52 Mostly Cloudy 42 5.6 31 -0.6 65 65 NE 9 15 30.04 1017 10 16 N/A
11:52 pm 23:52 Mostly Cloudy 40 4.4 31 -0.6 70 70 NE 9 15 30.04 1017 10 16 N/A

Powered by AerisWeather